| time (UTC) | temp F | wind direction | speed MPH | gust MPH | rain 1hr in | rain 24hr in | rain mn in | humidity % | barometer mb |
| 20260505163347 | 76 | 150 | 7.0 | 12.0 | 0.00 | 0.00 | 0.00 | 49 | 1006.4 |
| 20260505163341 | 77 | 266 | 8.0 | 16.0 | 0.00 | 0.00 | 0.00 | 33 | 1007.8 |
| 20260505161933 | 76 | 112 | 7.0 | 15.0 | 0.00 | 0.00 | 0.00 | 36 | 1008.0 |
| 20260505161841 | 74 | 119 | 5.0 | 14.0 | 0.00 | 0.00 | 0.00 | 51 | 1006.6 |
| 20260505161830 | 76 | 112 | 7.0 | 15.0 | 0.00 | 0.00 | 0.00 | 36 | 1008.0 |
| 20260505160422 | 74 | 232 | 4.0 | 10.0 | 0.00 | 0.00 | 0.00 | 49 | 1007.1 |
| 20260505160348 | 76 | 124 | 5.0 | 13.0 | 0.00 | 0.00 | 0.00 | 34 | 1008.4 |
| 20260505153338 | 73 | 134 | 6.0 | 15.0 | 0.00 | 0.00 | 0.00 | 37 | 1008.9 |
| 20260505151857 | 73 | 126 | 4.0 | 12.0 | 0.00 | 0.00 | 0.00 | 40 | 1009.1 |
| 20260505151825 | 72 | 135 | 6.0 | 12.0 | 0.00 | 0.00 | 0.00 | 52 | 1007.6 |
| 20260505150348 | 70 | 167 | 5.0 | 10.0 | 0.00 | 0.00 | 0.00 | 56 | 1008.0 |
| 20260505150346 | 72 | 164 | 5.0 | 14.0 | 0.00 | 0.00 | 0.00 | 38 | 1009.4 |
| 20260505140357 | 64 | 126 | 4.0 | 9.0 | 0.00 | 0.00 | 0.00 | 47 | 1010.0 |
| 20260505140355 | 63 | 148 | 6.0 | 11.0 | 0.00 | 0.00 | 0.00 | 66 | 1008.4 |
| 20260505124911 | 59 | 148 | 4.0 | 8.0 | 0.00 | 0.00 | 0.00 | 70 | 1008.4 |
| 20260505124835 | 58 | 185 | 3.0 | 8.0 | 0.00 | 0.00 | 0.00 | 55 | 1010.1 |
| 20260505123421 | 57 | 199 | 4.0 | 10.0 | 0.00 | 0.00 | 0.00 | 58 | 1010.1 |
| 20260505123405 | 58 | 116 | 4.0 | 9.0 | 0.00 | 0.00 | 0.00 | 71 | 1008.5 |
| 20260505121846 | 55 | 156 | 2.0 | 10.0 | 0.00 | 0.00 | 0.00 | 60 | 1010.2 |
| 20260505121827 | 58 | 180 | 4.0 | 9.0 | 0.00 | 0.00 | 0.00 | 72 | 1008.5 |
| 20260505120345 | 54 | 125 | 2.0 | 9.0 | 0.00 | 0.00 | 0.00 | 61 | 1010.3 |
| 20260505120343 | 56 | 173 | 2.0 | 7.0 | 0.00 | 0.00 | 0.00 | 73 | 1008.7 |
| 20260505114853 | 56 | 138 | 1.0 | 6.0 | 0.00 | 0.00 | 0.00 | 74 | 1008.8 |
| 20260505114847 | 54 | 224 | 2.0 | 7.0 | 0.00 | 0.00 | 0.00 | 61 | 1010.4 |
| 20260505113354 | 53 | 145 | 2.0 | 10.0 | 0.00 | 0.00 | 0.00 | 61 | 1010.4 |
| 20260505113351 | 57 | 151 | 5.0 | 11.0 | 0.00 | 0.00 | 0.00 | 74 | 1008.7 |
| 20260505111837 | 52 | 125 | 3.0 | 6.0 | 0.00 | 0.00 | 0.00 | 62 | 1010.4 |
| 20260505111820 | 56 | 121 | 3.0 | 8.0 | 0.00 | 0.00 | 0.00 | 75 | 1008.9 |
| 20260505110421 | 55 | 181 | 3.0 | 7.0 | 0.00 | 0.00 | 0.00 | 76 | 1008.6 |
| 20260505110356 | 51 | 156 | 2.0 | 3.0 | 0.00 | 0.00 | 0.00 | 63 | 1010.1 |
| 20260505110318 | 55 | 181 | 3.0 | 7.0 | 0.00 | 0.00 | 0.00 | 76 | 1008.6 |
| 20260505101849 | 50 | 105 | 1.0 | 2.0 | 0.00 | 0.00 | 0.00 | 63 | 1009.7 |
| 20260505101812 | 53 | 122 | 1.0 | 3.0 | 0.00 | 0.00 | 0.00 | 77 | 1008.1 |
| 20260505100328 | 51 | 102 | 2.0 | 3.0 | 0.00 | 0.00 | 0.00 | 62 | 1009.6 |
| 20260505100315 | 53 | 266 | 0.0 | 1.0 | 0.00 | 0.00 | 0.00 | 76 | 1008.1 |
| 20260505094837 | 54 | 263 | 0.0 | 3.0 | 0.00 | 0.00 | 0.00 | 74 | 1008.3 |
| 20260505094833 | 51 | 133 | 0.0 | 2.0 | 0.00 | 0.00 | 0.00 | 61 | 1009.8 |
| 20260505093341 | 54 | 360 | 0.0 | 3.0 | 0.00 | 0.00 | 0.00 | 73 | 1008.1 |
| 20260505093337 | 51 | 128 | 2.0 | 4.0 | 0.00 | 0.00 | 0.00 | 61 | 1009.7 |
| 20260505091858 | 51 | 126 | 2.0 | 8.0 | 0.00 | 0.00 | 0.00 | 61 | 1009.5 |
| 20260505091843 | 54 | 212 | 2.0 | 6.0 | 0.00 | 0.00 | 0.00 | 73 | 1008.0 |
| 20260505090338 | 51 | 131 | 2.0 | 4.0 | 0.00 | 0.00 | 0.00 | 61 | 1009.7 |
| 20260505090321 | 55 | 174 | 1.0 | 5.0 | 0.00 | 0.00 | 0.00 | 72 | 1008.2 |
| 20260505084910 | 51 | 118 | 0.0 | 3.0 | 0.00 | 0.00 | 0.00 | 60 | 1009.9 |
| 20260505084821 | 55 | 69 | 0.0 | 5.0 | 0.00 | 0.00 | 0.00 | 71 | 1008.3 |
| 20260505083429 | 55 | 249 | 2.0 | 6.0 | 0.00 | 0.00 | 0.00 | 70 | 1008.5 |
| 20260505083331 | 52 | 155 | 0.0 | 6.0 | 0.00 | 0.00 | 0.00 | 59 | 1009.9 |
| 20260505081900 | 52 | 126 | 1.0 | 3.0 | 0.00 | 0.00 | 0.00 | 58 | 1009.9 |
| 20260505081829 | 55 | 24 | 1.0 | 5.0 | 0.00 | 0.00 | 0.00 | 70 | 1008.2 |
| 20260505080349 | 55 | 235 | 1.0 | 5.0 | 0.00 | 0.00 | 0.00 | 70 | 1008.2 |
| 20260505080344 | 52 | 131 | 1.0 | 8.0 | 0.00 | 0.00 | 0.00 | 58 | 1009.7 |
| 20260505074933 | 52 | 257 | 2.0 | 7.0 | 0.00 | 0.00 | 0.00 | 57 | 1009.8 |
| 20260505074828 | 55 | 97 | 1.0 | 5.0 | 0.00 | 0.00 | 0.00 | 70 | 1008.3 |
| 20260505073348 | 55 | 71 | 0.0 | 2.0 | 0.00 | 0.00 | 0.00 | 71 | 1008.3 |
| 20260505073334 | 52 | 120 | 3.0 | 7.0 | 0.00 | 0.00 | 0.00 | 57 | 1009.9 |
| 20260505071849 | 55 | 109 | 0.0 | 7.0 | 0.00 | 0.00 | 0.00 | 70 | 1008.2 |
| 20260505071836 | 53 | 116 | 3.0 | 7.0 | 0.00 | 0.00 | 0.00 | 56 | 1009.9 |
| 20260505070406 | 53 | 232 | 2.0 | 6.0 | 0.00 | 0.00 | 0.00 | 56 | 1009.9 |
| 20260505070330 | 55 | 247 | 1.0 | 3.0 | 0.00 | 0.00 | 0.00 | 70 | 1008.3 |
| 20260505064912 | 53 | 209 | 2.0 | 7.0 | 0.00 | 0.00 | 0.00 | 73 | 1008.3 |
| 20260505064908 | 53 | 130 | 2.0 | 7.0 | 0.00 | 0.00 | 0.00 | 55 | 1010.0 |
| 20260505064826 | 53 | 130 | 2.0 | 7.0 | 0.00 | 0.00 | 0.00 | 55 | 1010.0 |
| 20260505063331 | 53 | 154 | 4.0 | 10.0 | 0.00 | 0.00 | 0.00 | 55 | 1010.0 |
| 20260505063327 | 52 | 147 | 1.0 | 3.0 | 0.00 | 0.00 | 0.00 | 77 | 1008.3 |
| 20260505061913 | 53 | 239 | 0.0 | 3.0 | 0.00 | 0.00 | 0.00 | 76 | 1008.5 |
| 20260505061836 | 53 | 127 | 3.0 | 8.0 | 0.00 | 0.00 | 0.00 | 55 | 1010.1 |
| 20260505060407 | 54 | 144 | 4.0 | 9.0 | 0.00 | 0.00 | 0.00 | 74 | 1008.7 |
| 20260505060403 | 53 | 226 | 2.0 | 5.0 | 0.00 | 0.00 | 0.00 | 54 | 1010.2 |
| 20260505054845 | 54 | 324 | 2.0 | 6.0 | 0.00 | 0.00 | 0.00 | 54 | 1010.4 |
| 20260505054843 | 55 | 144 | 7.0 | 11.0 | 0.00 | 0.00 | 0.00 | 74 | 1008.9 |
| 20260505053406 | 53 | 143 | 3.0 | 10.0 | 0.00 | 0.00 | 0.00 | 54 | 1010.3 |
| 20260505053339 | 55 | 149 | 10.0 | 14.0 | 0.00 | 0.00 | 0.00 | 73 | 1008.9 |
| 20260505051826 | 54 | 110 | 4.0 | 11.0 | 0.00 | 0.00 | 0.00 | 53 | 1010.4 |
| 20260505051817 | 55 | 149 | 9.0 | 11.0 | 0.00 | 0.00 | 0.00 | 72 | 1009.0 |
| 20260505050331 | 54 | 137 | 0.0 | 8.0 | 0.00 | 0.00 | 0.00 | 52 | 1010.4 |
| 20260505050314 | 55 | 133 | 5.0 | 8.0 | 0.00 | 0.00 | 0.00 | 71 | 1009.0 |
| 20260505040331 | 56 | 134 | 0.0 | 2.0 | 0.00 | 0.00 | 0.00 | 67 | 1008.7 |
| 20260505040327 | 56 | 82 | 5.0 | 11.0 | 0.00 | 0.00 | 0.00 | 49 | 1010.3 |
| 20260505034918 | 56 | 259 | 1.0 | 2.0 | 0.00 | 0.00 | 0.00 | 66 | 1008.6 |
| 20260505034828 | 56 | 114 | 4.0 | 9.0 | 0.00 | 0.00 | 0.00 | 48 | 1010.1 |
| 20260505033340 | 57 | 86 | 2.0 | 11.0 | 0.00 | 0.00 | 0.00 | 47 | 1010.2 |
| 20260505033312 | 57 | 160 | 0.0 | 5.0 | 0.00 | 0.00 | 0.00 | 65 | 1008.6 |
| 20260505031843 | 57 | 87 | 3.0 | 9.0 | 0.00 | 0.00 | 0.00 | 46 | 1010.0 |
| 20260505031815 | 58 | 298 | 1.0 | 3.0 | 0.00 | 0.00 | 0.00 | 64 | 1008.5 |
| 20260505030405 | 58 | 141 | 0.0 | 9.0 | 0.00 | 0.00 | 0.00 | 64 | 1008.5 |
| 20260505030329 | 58 | 127 | 3.0 | 10.0 | 0.00 | 0.00 | 0.00 | 45 | 1010.0 |
| 20260505024849 | 59 | 101 | 3.0 | 9.0 | 0.00 | 0.00 | 0.00 | 44 | 1010.1 |
| 20260505024825 | 59 | 195 | 3.0 | 9.0 | 0.00 | 0.00 | 0.00 | 63 | 1008.6 |
| 20260505023403 | 59 | 134 | 2.0 | 11.0 | 0.00 | 0.00 | 0.00 | 43 | 1010.0 |
| 20260505023318 | 60 | 206 | 2.0 | 10.0 | 0.00 | 0.00 | 0.00 | 61 | 1008.4 |
| 20260505021925 | 60 | 325 | 1.0 | 5.0 | 0.00 | 0.00 | 0.00 | 60 | 1008.4 |
| 20260505021907 | 60 | 146 | 2.0 | 9.0 | 0.00 | 0.00 | 0.00 | 41 | 1010.0 |
| 20260505021843 | 60 | 325 | 1.0 | 5.0 | 0.00 | 0.00 | 0.00 | 60 | 1008.4 |
| 20260505021824 | 60 | 146 | 2.0 | 9.0 | 0.00 | 0.00 | 0.00 | 41 | 1010.0 |
| 20260505020352 | 60 | 110 | 3.0 | 12.0 | 0.00 | 0.00 | 0.00 | 40 | 1009.7 |
| 20260505020344 | 61 | 181 | 3.0 | 8.0 | 0.00 | 0.00 | 0.00 | 59 | 1008.3 |
| 20260505014920 | 61 | 112 | 5.0 | 14.0 | 0.00 | 0.00 | 0.00 | 38 | 1009.4 |
| 20260505014847 | 61 | 103 | 2.0 | 7.0 | 0.00 | 0.00 | 0.00 | 56 | 1008.1 |
| 20260505013347 | 62 | 158 | 2.0 | 6.0 | 0.00 | 0.00 | 0.00 | 54 | 1008.3 |
| 20260505013345 | 62 | 128 | 5.0 | 9.0 | 0.00 | 0.00 | 0.00 | 36 | 1009.4 |
| 20260505011849 | 63 | 146 | 5.0 | 11.0 | 0.00 | 0.00 | 0.00 | 30 | 1009.3 |
| 20260505011825 | 62 | 119 | 2.0 | 9.0 | 0.00 | 0.00 | 0.00 | 52 | 1008.1 |
| 20260505010409 | 61 | 317 | 0.0 | 2.0 | 0.00 | 0.00 | 0.00 | 51 | 1007.7 |
| 20260505010333 | 64 | 140 | 2.0 | 5.0 | 0.00 | 0.00 | 0.00 | 29 | 1009.2 |
| 20260505004928 | 64 | 113 | 3.0 | 7.0 | 0.00 | 0.00 | 0.00 | 29 | 1009.0 |
| 20260505004833 | 61 | 349 | 0.0 | 2.0 | 0.00 | 0.00 | 0.00 | 52 | 1007.5 |
| 20260505003359 | 63 | 244 | 0.0 | 1.0 | 0.00 | 0.00 | 0.00 | 50 | 1007.4 |
| 20260505003333 | 64 | 106 | 4.0 | 10.0 | 0.00 | 0.00 | 0.00 | 31 | 1008.8 |
| 20260505001859 | 64 | 242 | 0.0 | 2.0 | 0.00 | 0.00 | 0.00 | 47 | 1007.1 |
| 20260505001836 | 64 | 106 | 3.0 | 6.0 | 0.00 | 0.00 | 0.00 | 29 | 1008.7 |
| 20260505001817 | 64 | 242 | 0.0 | 2.0 | 0.00 | 0.00 | 0.00 | 47 | 1007.1 |
| 20260505000343 | 65 | 137 | 3.0 | 9.0 | 0.00 | 0.00 | 0.00 | 28 | 1008.5 |
| 20260505000317 | 65 | 117 | 0.0 | 2.0 | 0.00 | 0.00 | 0.00 | 46 | 1006.9 |
| 20260504234935 | 66 | 103 | 3.0 | 10.0 | 0.00 | 0.00 | 0.00 | 28 | 1008.3 |
| 20260504234836 | 66 | 119 | 0.0 | 4.0 | 0.00 | 0.00 | 0.00 | 45 | 1006.7 |
| 20260504233415 | 67 | 141 | 3.0 | 5.0 | 0.00 | 0.00 | 0.00 | 26 | 1008.0 |
| 20260504233318 | 67 | 142 | 0.0 | 2.0 | 0.00 | 0.00 | 0.00 | 42 | 1006.6 |
| 20260504231845 | 68 | 144 | 1.0 | 7.0 | 0.00 | 0.00 | 0.00 | 26 | 1007.8 |
| 20260504231841 | 68 | 171 | 2.0 | 4.0 | 0.00 | 0.00 | 0.00 | 42 | 1006.3 |
| 20260504230440 | 68 | 118 | 1.0 | 4.0 | 0.00 | 0.00 | 0.00 | 25 | 1007.8 |
| 20260504230321 | 68 | 188 | 0.0 | 3.0 | 0.00 | 0.00 | 0.00 | 41 | 1006.2 |
| 20260504224836 | 69 | 291 | 6.0 | 10.0 | 0.00 | 0.00 | 0.00 | 24 | 1007.8 |
| 20260504224823 | 68 | 203 | 2.0 | 7.0 | 0.00 | 0.00 | 0.00 | 39 | 1006.0 |
| 20260504223428 | 70 | 213 | 6.0 | 11.0 | 0.00 | 0.00 | 0.00 | 24 | 1007.6 |
| 20260504223409 | 68 | 209 | 1.0 | 13.0 | 0.00 | 0.00 | 0.00 | 40 | 1005.9 |
| 20260504221844 | 70 | 262 | 5.0 | 11.0 | 0.00 | 0.00 | 0.00 | 23 | 1007.6 |
| 20260504221829 | 69 | 319 | 2.0 | 9.0 | 0.00 | 0.00 | 0.00 | 38 | 1005.8 |
| 20260504220353 | 71 | 112 | 3.0 | 12.0 | 0.00 | 0.00 | 0.00 | 23 | 1007.4 |
| 20260504220327 | 69 | 130 | 2.0 | 12.0 | 0.00 | 0.00 | 0.00 | 39 | 1005.9 |
| 20260504214945 | 71 | 237 | 2.0 | 8.0 | 0.00 | 0.00 | 0.00 | 24 | 1007.5 |
| 20260504214829 | 70 | 284 | 4.0 | 7.0 | 0.00 | 0.00 | 0.00 | 37 | 1005.9 |
| 20260504213349 | 70 | 257 | 1.0 | 9.0 | 0.00 | 0.00 | 0.00 | 38 | 1006.0 |
| 20260504211849 | 70 | 295 | 4.0 | 12.0 | 0.00 | 0.00 | 0.00 | 38 | 1006.1 |
| 20260504211835 | 70 | 10 | 2.0 | 9.0 | 0.00 | 0.00 | 0.00 | 25 | 1007.8 |
| 20260504210437 | 69 | 319 | 4.0 | 12.0 | 0.00 | 0.00 | 0.00 | 37 | 1006.2 |
| 20260504210345 | 71 | 190 | 3.0 | 14.0 | 0.00 | 0.00 | 0.00 | 24 | 1007.8 |
| 20260504210334 | 69 | 319 | 4.0 | 12.0 | 0.00 | 0.00 | 0.00 | 37 | 1006.2 |
| 20260504204852 | 70 | 182 | 6.0 | 16.0 | 0.00 | 0.00 | 0.00 | 24 | 1007.8 |
| 20260504204835 | 69 | 250 | 5.0 | 16.0 | 0.00 | 0.00 | 0.00 | 37 | 1006.2 |
| 20260504203355 | 69 | 296 | 4.0 | 9.0 | 0.00 | 0.00 | 0.00 | 38 | 1006.3 |
| 20260504201859 | 71 | 155 | 6.0 | 10.0 | 0.00 | 0.00 | 0.00 | 22 | 1007.9 |
| 20260504201838 | 69 | 166 | 5.0 | 9.0 | 0.00 | 0.00 | 0.00 | 39 | 1006.2 |
| 20260504200336 | 69 | 250 | 3.0 | 7.0 | 0.00 | 0.00 | 0.00 | 38 | 1006.3 |
| 20260504200334 | 70 | 157 | 5.0 | 12.0 | 0.00 | 0.00 | 0.00 | 22 | 1008.0 |
| 20260504194929 | 70 | 251 | 4.0 | 13.0 | 0.00 | 0.00 | 0.00 | 25 | 1007.9 |
| 20260504194838 | 69 | 198 | 2.0 | 10.0 | 0.00 | 0.00 | 0.00 | 40 | 1006.2 |
| 20260504193356 | 69 | 281 | 4.0 | 11.0 | 0.00 | 0.00 | 0.00 | 39 | 1006.3 |
| 20260504193331 | 70 | 95 | 5.0 | 12.0 | 0.00 | 0.00 | 0.00 | 25 | 1007.9 |
| 20260504191833 | 69 | 256 | 5.0 | 16.0 | 0.00 | 0.00 | 0.00 | 23 | 1007.9 |
| 20260504190400 | 69 | 234 | 3.0 | 13.0 | 0.00 | 0.00 | 0.00 | 38 | 1006.6 |
| 20260504190337 | 69 | 156 | 4.0 | 10.0 | 0.00 | 0.00 | 0.00 | 26 | 1008.0 |
| 20260504184900 | 69 | 261 | 7.0 | 13.0 | 0.00 | 0.00 | 0.00 | 36 | 1006.6 |
| 20260504184839 | 69 | 287 | 6.0 | 14.0 | 0.00 | 0.00 | 0.00 | 25 | 1008.2 |
| 20260504183414 | 66 | 2 | 4.0 | 15.0 | 0.00 | 0.00 | 0.00 | 25 | 1008.2 |
| 20260504183314 | 68 | 236 | 3.0 | 17.0 | 0.00 | 0.00 | 0.00 | 38 | 1006.6 |
| 20260504181853 | 66 | 244 | 6.0 | 12.0 | 0.00 | 0.00 | 0.00 | 25 | 1008.2 |
| 20260504181833 | 68 | 272 | 5.0 | 12.0 | 0.00 | 0.00 | 0.00 | 38 | 1006.6 |
| 20260504180358 | 66 | 257 | 3.0 | 16.0 | 0.00 | 0.00 | 0.00 | 26 | 1008.3 |
| 20260504180352 | 68 | 296 | 8.0 | 15.0 | 0.00 | 0.00 | 0.00 | 37 | 1006.7 |
| 20260504174840 | 66 | 206 | 8.0 | 19.0 | 0.00 | 0.00 | 0.00 | 25 | 1008.7 |
| 20260504174831 | 67 | 264 | 8.0 | 16.0 | 0.00 | 0.00 | 0.00 | 38 | 1006.9 |
| 20260504173348 | 66 | 224 | 9.0 | 16.0 | 0.00 | 0.00 | 0.00 | 24 | 1008.4 |
| 20260504173325 | 66 | 95 | 3.0 | 11.0 | 0.00 | 0.00 | 0.00 | 40 | 1006.9 |
| 20260504171915 | 64 | 180 | 4.0 | 13.0 | 0.00 | 0.00 | 0.00 | 26 | 1008.6 |
| 20260504171848 | 67 | 239 | 2.0 | 12.0 | 0.00 | 0.00 | 0.00 | 39 | 1006.9 |
| 20260504170402 | 65 | 278 | 5.0 | 10.0 | 0.00 | 0.00 | 0.00 | 28 | 1008.7 |
| 20260504170347 | 67 | 198 | 3.0 | 12.0 | 0.00 | 0.00 | 0.00 | 39 | 1007.1 |